ONEWEB-0705, 61610

Orbit data source: Space-Track

ONEWEB-0705, 61610 is a payload satellite owned by Eut. One Web (UK) in LEO that was launched on Sun, 20 Oct 2024 UTC via an FALCON 9 launch vehicle from the Air Force Western Test Range (AFWTR). Payload-class satellites include a variety of spacecraft equipped with specific instruments for various scientific and technological missions. These include communications satellites like Starlink; space stations such as the ISS; scientific satellites like the Hubble; Earth observation satellites from companies like Planet Labs, Umbra, and HawkEye 360; GPS; miniature CubeSats for education and research; and military/defense satellites.

Loading next visibility...
Identifier
61610, 2024-188S
Orbit
LEO
Last TLE update
9 hours ago
Origin
Manufacturer
One Web
Mission
Operational Commercial Communications
Bus & Motor
ARROW, Unknown motor
Mass
148 kg wet, ~140 kg dry
Launch date (UTC)
2024-10-20 (7 months ago)
Launch vehicle
FALCON 9
Launch site
Air Force Western Test Range (AFWTR)
Object type
Payload
Rocket body
Debris
Shape & HBR
Trap Box + 2 Pan, 5 m
Radar Cross Section
2.032 m², Large (>1 m²)

Expand to show TLE details & history

TLE from 9 hours ago
0 ONEWEB-0705
1 61610U 24188S   25132.88476964 -.00000140  00000-0 -43735-3 0  9994
2 61610  87.8777 116.0667 0003104  97.1231 263.0250 13.10368481 23039
Epoch: 2025-05-12T21:14Z
Definitive object data (Epoch: 2025-05-12T21:14:04.096Z)
Latitude
0.00002°
Longitude
-73.34181°
Altitude
1,224.909 km
Speed
7.242 km/s
True Right ascension
07h 44m 16s
True Declination
0° 00' 00"
Sunlit
Object was in daylight at TLE epoch
Visualization TLE readout
Latitude
17.27655°
Longitude
-72.76166°
Altitude
1,223.573 km
Speed
7.244 km/s
Apparent Right ascension
05h 52m 59s
Apparent Declination
-10° 29' 13"
Sunlit
Object is in daylight
Visualization observer readout
Local Sidereal Time
14:53:42
Azimuth
293.954° NW
Elevation
-40.672°
Doppler factor
1
Orbital elements
Apogee altitude
1,221.212 km
Perigee altitude
1,216.496 km
Semi-major axis
7,596.991 km
Eccentricity
0.0003104
Inclination
87.8777°
RAAN
116.0667°
Arg. of periapsis
97.1231°
True anomaly
262.9897°
Mean anomaly
263.025°
Eccentric anomaly
263.00735°
Mean motion
3.27779 °/min
BSTAR
-0.00043735
Orbital period
109.83 mins
Loading maneuver chart data...
Loading SW <> Apogee altitude chart data...
Loading historical data...
Loading historical data...
Loading historical data...
Loading historical data...
Loading historical data...
Loading historical data...
Loading historical data...

ONEWEB-0705 Visibility forecast

Observer location: undefined°, undefined°

Span
Click to sort rows by Start time (UTC) header in descending order
Start Az.
Max El. time (UTC)
Max El. Az.
Max El.
End time (UTC)
End Az.
13 mins2025-05-13 10:40:05.650Z7.861° NNE2025-05-13 10:46:05.650Z73.199° E41.282°2025-05-13 10:53:05.650Z165.676° S
9 mins2025-05-13 12:32:05.650Z321.706° NNW2025-05-13 12:36:05.650Z280.825° WNW21.643°2025-05-13 12:41:05.650Z236.593° WSW
13 mins2025-05-13 22:59:05.650Z167.219° S2025-05-13 23:06:05.650Z62.864° ENE42.836°2025-05-13 23:12:05.650Z6.399° NNE
9 mins2025-05-14 00:52:05.650Z246.034° WSW2025-05-14 00:56:05.650Z283.225° WNW19.398°2025-05-14 01:01:05.650Z328.522° NNW
|